[[{"header":{"parameterUnit":"m.s-1","parameterCategory":1,"la1":30.2991,"la2":30.254,"lo1":-89.0895,"lo2":-89.0444,"dy":0.0017,"dx":0.0017,"nx":28,"ny":28,"refTime":"2023-08-30T09:00:00:Z","depth":0,"parameterNumber":2,"parameterNumberName":"U-component_of_WINDS"},"data":[0,0,0,0,0,0,0,0,0,0,0,0,0,0,0,0,0,0,0,0,0,0,0,0,0,0,0,0,0,0,0,0,0,0,0,0,0,0,0,0,0,0,0,0,0,0,0,0,0,0,0,0,0,0,0,0,0,0,0.4568,0.4568,0,0.459,0.459,0.459,0.4607,0.4607,0.4608,0.4608,0.4629,0.463,0.463,0,0,0,0,0,0,0,0,0,0,0,0,0,0.4541,0.4542,0.4568,0.4568,0.4569,0.459,0.459,0.459,0.4607,0.4607,0.4608,0.4608,0.4629,0.463,0.463,0,0,0,0,0,0,0,0,0,0,0,0,0,0.4557,0.4542,0.4568,0.458,0.4581,0.459,0.459,0.459,0.4607,0.4607,0.4608,0.4608,0.4629,0.463,0.463,0.4629,0,0,0.4632,0.4633,0,0,0,0,0,0,0,0,0.4556,0.4558,0.4578,0.4579,0.458,0.4596,0.4589,0.4603,0.4607,0.4597,0.4608,0.4608,0.4618,0.462,0.4623,0.463,0.4631,0.4632,0.4633,0.4633,0.4633,0,0,0,0,0,0,0,0.4555,0.4557,0.4577,0.4578,0.458,0.4584,0.4586,0.4591,0.4606,0.4598,0.4599,0.4602,0.4619,0.4623,0.4624,0.4632,0.4632,0.4633,0.4633,0.4634,0.4639,0.4639,0,0,0,0,0,0,0.4552,0.4556,0.4576,0.4577,0.4568,0.4584,0.4587,0.4591,0.4606,0.4609,0.4601,0.4602,0.4621,0.4623,0.4625,0.4624,0.4633,0.4634,0.4634,0.4639,0.4639,0.4638,0,0,0,0,0,0,0.4551,0.4554,0.4575,0.4567,0.457,0.4584,0.4589,0.4591,0.4595,0.4609,0.4611,0.4603,0.4622,0.4624,0.4628,0.4625,0.4634,0.4635,0.4639,0.4639,0.4639,0.4623,0,0,0,0,0,0,0.455,0.4553,0.4553,0.4567,0.457,0.4578,0.4588,0.4591,0.4596,0.4597,0.461,0.4613,0.4622,0.4627,0.4629,0.4626,0.4635,0.464,0.4639,0.4639,0.4624,0.4622,0.4621,0,0,0,0,0,0.4549,0.4548,0.4553,0.4555,0.457,0.4578,0.458,0.4591,0.4596,0.4595,0.4604,0.4612,0.4625,0.4627,0.4629,0.4627,0.464,0.4639,0.4639,0.4625,0.4623,0.4621,0,0,0,0,0,0,0.4533,0.455,0.4556,0.4559,0.4567,0.4581,0.4581,0.4588,0.4595,0.4596,0.461,0.4612,0.4615,0.4622,0.4624,0.4627,0.4634,0.4633,0.4622,0.462,0.4619,0.4617,0.4636,0,0,0,0,0,0.453,0.4535,0.4549,0.455,0.4554,0.4567,0.457,0.4578,0.4587,0.4591,0.46,0.4608,0.4614,0.4618,0.4624,0.4625,0.4628,0.4625,0.4623,0.4622,0.4621,0.4622,0.4621,0.4637,0.4637,0.4637,0,0,0.4523,0.4533,0.4535,0.4547,0.4554,0.4559,0.457,0.4574,0.4577,0.4591,0.4596,0.4603,0.4613,0.4616,0.4617,0.4621,0.4618,0.4621,0.462,0.462,0.4622,0.462,0.4619,0.4636,0.4636,0.4636,0,0,0.4513,0.4521,0.4523,0.453,0.4541,0.4549,0.455,0.4563,0.4568,0.4573,0.4583,0.4588,0.4598,0.4604,0.4609,0.4602,0.4609,0.4603,0.4595,0.4596,0.4595,0.4594,0.4591,0.459,0.4603,0.4603,0.4603,0,0.4504,0.4511,0.4523,0.4527,0.4531,0.4544,0.4546,0.4552,0.4565,0.4568,0.4572,0.4585,0.4592,0.4597,0.4595,0.4598,0.4599,0.4602,0.4594,0.4593,0.4592,0.459,0.4589,0.4602,0.4602,0.4602,0.4603,0,0.4498,0.4503,0.4503,0.4515,0.452,0.4522,0.4535,0.4538,0.4545,0.4553,0.4558,0.4568,0.4576,0.4578,0.4585,0.4583,0.4585,0.4592,0.4599,0.459,0.4587,0.4587,0.4601,0.4601,0.4602,0.4602,0,0,0.4478,0.4497,0.4496,0.4502,0.4515,0.4519,0.4522,0.453,0.4533,0.4541,0.4544,0.4552,0.4558,0.4563,0.4571,0.4572,0.4565,0.4578,0.4579,0.4575,0.4564,0.4558,0.4557,0.4571,0.457,0.457,0.4563,0,0.447,0.4477,0.4488,0.449,0.4495,0.4507,0.451,0.4518,0.4526,0.4531,0.4539,0.4545,0.4552,0.4556,0.4557,0.4566,0.4563,0.4567,0.4573,0.4573,0.457,0.4556,0.4551,0.4543,0.4562,0.4562,0.4562,0,0.4461,0.4469,0.4472,0.4485,0.4487,0.4489,0.4498,0.4502,0.4512,0.4517,0.4523,0.4532,0.4536,0.4543,0.4548,0.4551,0.4554,0.4559,0.4559,0.4559,0.4567,0.4556,0.4541,0.4539,0.456,0.4561,0.4561,0,0.4446,0.4457,0.446,0.4464,0.4479,0.4481,0.4487,0.4497,0.4501,0.4508,0.4511,0.4519,0.4523,0.4529,0.454,0.4544,0.4544,0.4552,0.4548,0.4548,0.4547,0.4547,0.4532,0.455,0.455,0.455,0.455,0,0.4436,0.4437,0.4453,0.4455,0.4457,0.447,0.4472,0.4479,0.4488,0.4491,0.4503,0.4506,0.452,0.4525,0.4533,0.4536,0.4538,0.4542,0.4545,0.4541,0.454,0.4543,0.4544,0.455,0.455,0.455,0.455,0,0.4418,0.443,0.4434,0.4448,0.4451,0.4452,0.4464,0.4466,0.4475,0.4479,0.4481,0.4494,0.45,0.4511,0.4521,0.4526,0.4528,0.4532,0.4524,0.4526,0.4521,0.4521,0.4507,0.4506,0.4525,0.4525,0.4525,0,0.4411,0.4412,0.4426,0.4429,0.4435,0.444,0.4445,0.4457,0.4461,0.4472,0.4473,0.448,0.4486,0.4496,0.4506,0.4513,0.4517,0.4512,0.4518,0.4515,0.4517,0.4516,0.4516,0.451,0.451,0.451,0.4509,0,0.4396,0.4401,0.4407,0.4415,0.442,0.4427,0.4434,0.4436,0.445,0.4454,0.4461,0.4466,0.4475,0.4482,0.4491,0.4497,0.4506,0.4507,0.4507,0.4503,0.4499,0.4501,0.452,0.4507,0.4508,0.4508,0.4508,0.4508,0.4383,0.4385,0.4395,0.4401,0.4408,0.4414,0.4417,0.4426,0.4431,0.444,0.4447,0.4453,0.4463,0.4475,0.4481,0.4486,0.449,0.4489,0.4489,0.4489,0.4487,0.4498,0.4488,0.4488,0.4488,0.4488,0.4488,0,0.4368,0.4375,0.4381,0.4391,0.4395,0.4403,0.4412,0.4415,0.442,0.4428,0.4434,0.4442,0.4449,0.4459,0.4467,0.4469,0.4473,0.447,0.447,0.4471,0.4483,0.4483,0.4467,0.4467,0.4467,0.4467,0.4467,0.4467,0.4361,0.4364,0.4371,0.4377,0.4385,0.439,0.4395,0.4401,0.4407,0.4415,0.4421,0.4428,0.4437,0.4445,0.4452,0.4455,0.4457,0.4453,0.4458,0.4469,0.447,0.4472,0.4472,0.4454,0.4454,0.4445,0.4445,0.4445]},{"header":{"parameterUnit":"m.s-1","parameterCategory":1,"la1":30.2991,"la2":30.254,"lo1":-89.0895,"lo2":-89.0444,"dy":0.0017,"dx":0.0017,"nx":28,"ny":28,"refTime":"2023-08-30T09:00:00:Z","depth":0,"parameterNumber":3,"parameterNumberName":"V-component_of_WINDS"},"data":[0,0,0,0,0,0,0,0,0,0,0,0,0,0,0,0,0,0,0,0,0,0,0,0,0,0,0,0,0,0,0,0,0,0,0,0,0,0,0,0,0,0,0,0,0,0,0,0,0,0,0,0,0,0,0,0,0,0,-0.3429,-0.3428,0,-0.3384,-0.3384,-0.3383,-0.3387,-0.3388,-0.3388,-0.3389,-0.3342,-0.334,-0.3338,0,0,0,0,0,0,0,0,0,0,0,0,0,-0.3516,-0.3515,-0.3429,-0.3428,-0.3428,-0.3384,-0.3384,-0.3383,-0.3387,-0.3388,-0.3389,-0.3389,-0.3342,-0.334,-0.3338,0,0,0,0,0,0,0,0,0,0,0,0,0,-0.3475,-0.3514,-0.3429,-0.3425,-0.3424,-0.3384,-0.3383,-0.3383,-0.3387,-0.3388,-0.3389,-0.339,-0.3343,-0.334,-0.3338,-0.3299,0,0,-0.3329,-0.3328,0,0,0,0,0,0,0,0,-0.3478,-0.3472,-0.3426,-0.3425,-0.3424,-0.3392,-0.3397,-0.3355,-0.3387,-0.3401,-0.3389,-0.339,-0.3358,-0.3354,-0.3343,-0.3297,-0.3295,-0.3329,-0.3327,-0.3326,-0.3325,0,0,0,0,0,0,0,-0.3481,-0.3474,-0.3411,-0.3425,-0.3424,-0.3424,-0.342,-0.3389,-0.3374,-0.34,-0.34,-0.3395,-0.3357,-0.3346,-0.3342,-0.3294,-0.3329,-0.3326,-0.3324,-0.3323,-0.3213,-0.3212,0,0,0,0,0,0,-0.3485,-0.3476,-0.3412,-0.341,-0.3454,-0.3422,-0.3417,-0.3401,-0.3374,-0.3371,-0.3394,-0.3395,-0.335,-0.3345,-0.334,-0.3292,-0.3326,-0.3323,-0.3321,-0.3214,-0.3213,-0.3212,0,0,0,0,0,0,-0.3486,-0.3479,-0.3414,-0.3443,-0.3435,-0.3419,-0.3402,-0.34,-0.3388,-0.337,-0.3367,-0.3385,-0.3351,-0.3344,-0.3309,-0.3291,-0.3322,-0.3319,-0.3216,-0.3214,-0.3212,-0.3197,0,0,0,0,0,0,-0.3489,-0.348,-0.3465,-0.3443,-0.3433,-0.3384,-0.3401,-0.3398,-0.3383,-0.3385,-0.3361,-0.3358,-0.3351,-0.3313,-0.3306,-0.3287,-0.3317,-0.3217,-0.3215,-0.3213,-0.3199,-0.3195,-0.3191,0,0,0,0,0,-0.3492,-0.3463,-0.3464,-0.3457,-0.3415,-0.3383,-0.3378,-0.3371,-0.3382,-0.3367,-0.3355,-0.3358,-0.3294,-0.331,-0.3302,-0.3282,-0.3218,-0.3216,-0.3213,-0.3201,-0.3196,-0.3192,0,0,0,0,0,0,-0.3483,-0.346,-0.3461,-0.3424,-0.3406,-0.3384,-0.3365,-0.3366,-0.3344,-0.3346,-0.3339,-0.3333,-0.3298,-0.3287,-0.3304,-0.3243,-0.3258,-0.3253,-0.3251,-0.3246,-0.3242,-0.3245,-0.3314,0,0,0,0,0,-0.3476,-0.3453,-0.3434,-0.3403,-0.3393,-0.3381,-0.3367,-0.3363,-0.3344,-0.3336,-0.3322,-0.3302,-0.3278,-0.3262,-0.3238,-0.3198,-0.3192,-0.318,-0.3176,-0.3173,-0.3169,-0.3146,-0.314,-0.3203,-0.3203,-0.3203,0,0,-0.3463,-0.3447,-0.3433,-0.34,-0.3386,-0.3361,-0.3374,-0.3348,-0.3329,-0.3332,-0.3298,-0.3286,-0.3264,-0.3226,-0.3209,-0.3216,-0.3151,-0.317,-0.3168,-0.3165,-0.3143,-0.3137,-0.3131,-0.3201,-0.3201,-0.3202,0,0,-0.3425,-0.3412,-0.3384,-0.3369,-0.3347,-0.3339,-0.3332,-0.331,-0.3303,-0.3269,-0.327,-0.3247,-0.3206,-0.3189,-0.3176,-0.3132,-0.3133,-0.3124,-0.3104,-0.3081,-0.3076,-0.3072,-0.3055,-0.3049,-0.3121,-0.3121,-0.312,0,-0.3411,-0.3374,-0.3369,-0.3342,-0.3327,-0.3329,-0.33,-0.3286,-0.3257,-0.3246,-0.3255,-0.3202,-0.3187,-0.3145,-0.3134,-0.3123,-0.3115,-0.3126,-0.3078,-0.3073,-0.3069,-0.3052,-0.3046,-0.3119,-0.312,-0.312,-0.312,0,-0.3357,-0.3331,-0.3311,-0.3284,-0.3267,-0.3239,-0.3229,-0.3212,-0.321,-0.3201,-0.3165,-0.3148,-0.3121,-0.3111,-0.3108,-0.3068,-0.3072,-0.3079,-0.3094,-0.3062,-0.3046,-0.304,-0.3118,-0.3118,-0.3119,-0.3119,0,0,-0.3311,-0.3281,-0.3274,-0.3261,-0.3237,-0.3216,-0.3189,-0.3162,-0.3147,-0.3128,-0.3103,-0.3068,-0.3074,-0.3058,-0.3054,-0.3035,-0.2999,-0.3044,-0.3043,-0.3035,-0.2952,-0.2946,-0.2939,-0.3001,-0.3,-0.2999,-0.2953,0,-0.327,-0.3221,-0.3215,-0.3171,-0.3147,-0.3148,-0.3124,-0.3106,-0.3097,-0.3074,-0.3064,-0.3038,-0.3049,-0.3039,-0.302,-0.3008,-0.2982,-0.3011,-0.2977,-0.2976,-0.2981,-0.2931,-0.2925,-0.2882,-0.2947,-0.2946,-0.2946,0,-0.3215,-0.3194,-0.3147,-0.3126,-0.3116,-0.3094,-0.3068,-0.3047,-0.3027,-0.3021,-0.3004,-0.3003,-0.2973,-0.299,-0.2948,-0.2968,-0.2953,-0.2945,-0.2944,-0.2939,-0.2958,-0.2924,-0.2869,-0.2862,-0.2936,-0.2937,-0.2938,0,-0.3185,-0.3145,-0.3111,-0.3101,-0.3075,-0.3059,-0.3048,-0.3029,-0.3013,-0.2991,-0.298,-0.2955,-0.2941,-0.2921,-0.2913,-0.2926,-0.2871,-0.2887,-0.2864,-0.2865,-0.2852,-0.2852,-0.2792,-0.2845,-0.2845,-0.2845,-0.2845,0,-0.3139,-0.311,-0.3097,-0.3077,-0.3044,-0.3038,-0.3005,-0.2995,-0.2977,-0.2954,-0.2954,-0.2932,-0.2923,-0.2899,-0.2893,-0.2858,-0.2852,-0.2846,-0.2844,-0.2845,-0.2846,-0.2835,-0.2837,-0.2843,-0.2844,-0.2844,-0.2844,0,-0.3099,-0.309,-0.3053,-0.3032,-0.3026,-0.3003,-0.2984,-0.2964,-0.2955,-0.2926,-0.2918,-0.2904,-0.2876,-0.2866,-0.2832,-0.2828,-0.2787,-0.2789,-0.2794,-0.2793,-0.277,-0.2772,-0.27,-0.269,-0.2751,-0.275,-0.275,0,-0.3069,-0.3047,-0.3024,-0.3008,-0.2996,-0.2972,-0.2956,-0.2949,-0.2932,-0.2907,-0.2889,-0.2861,-0.2839,-0.2794,-0.278,-0.2754,-0.2754,-0.273,-0.275,-0.2751,-0.2752,-0.2752,-0.275,-0.2726,-0.2726,-0.2725,-0.2725,0,-0.3018,-0.3014,-0.2991,-0.2966,-0.2947,-0.2927,-0.2908,-0.2895,-0.2885,-0.2866,-0.2837,-0.282,-0.2785,-0.2757,-0.2731,-0.2718,-0.2719,-0.2719,-0.2712,-0.2712,-0.2715,-0.2712,-0.2783,-0.272,-0.2721,-0.2721,-0.2721,-0.2721,-0.2981,-0.2961,-0.2941,-0.2915,-0.29,-0.2882,-0.2861,-0.285,-0.2826,-0.2798,-0.2795,-0.2764,-0.2744,-0.2708,-0.2694,-0.2669,-0.2676,-0.2666,-0.2663,-0.2661,-0.2658,-0.2721,-0.2665,-0.2665,-0.2665,-0.2665,-0.2665,0,-0.2928,-0.2915,-0.2892,-0.2865,-0.2844,-0.2848,-0.2827,-0.2809,-0.2782,-0.2763,-0.2741,-0.2708,-0.2681,-0.2665,-0.2637,-0.262,-0.262,-0.2613,-0.2614,-0.2611,-0.2655,-0.2663,-0.2614,-0.2614,-0.2614,-0.2614,-0.2614,-0.2614,-0.2898,-0.2863,-0.2858,-0.2816,-0.2803,-0.2773,-0.276,-0.2743,-0.2728,-0.2691,-0.2669,-0.2659,-0.2641,-0.2612,-0.2587,-0.2583,-0.2573,-0.2565,-0.2561,-0.2603,-0.2608,-0.2613,-0.262,-0.2563,-0.2563,-0.2519,-0.2519,-0.2518]}]]